Theta_e
303 307 305 306 310 317 325 326 326 325 325 329 329 327 325 326 326 329 331 323 331 341 348 349 348 347 347 346 345 344 343 342 340 339 338 337 336 335 333 333 330 328 326
301 303 302 302 312 312 311 320 325 324 325 327 326 325 323 324 325 326 329 329 326 334 342 347 348 348 347 346 345 344 343 341 339 337 336 333 333 333 332 331 329 327 325
298 302 300 302 306 307 304 305 315 324 324 325 325 325 325 323 324 323 327 328 327 325 333 342 345 346 347 346 345 343 342 340 338 336 334 332 332 332 331 330 327 325 325
296 300 298 300 301 303 302 302 303 316 321 323 322 323 324 324 323 323 325 326 327 329 328 335 340 342 344 345 345 343 341 339 336 334 333 331 331 331 330 327 325 324 324
294 298 297 299 300 300 300 301 302 301 316 320 321 322 323 323 323 323 323 324 326 328 330 328 329 333 339 343 344 343 340 337 335 332 331 330 330 330 328 325 324 324 324
292 294 296 297 297 299 298 299 300 302 301 313 319 319 321 322 322 321 322 323 325 326 328 330 330 326 331 338 341 341 338 335 334 331 330 329 329 328 326 326 324 323 324
291 292 293 294 296 297 297 298 300 300 300 301 300 317 319 320 318 319 319 322 322 324 325 326 328 326 331 334 337 339 337 335 332 332 330 329 327 325 325 324 324 324 324
286 287 288 291 295 296 297 297 298 299 299 300 294 312 309 312 316 318 318 318 319 319 320 323 326 324 328 330 330 333 334 333 333 331 329 328 326 325 325 325 325 324 324
284 284 284 285 290 295 296 295 297 297 296 298 299 296 307 306 311 314 316 317 317 318 319 321 324 324 323 324 326 327 326 327 328 329 328 327 326 326 325 325 325 324 325
281 282 284 287 290 293 295 293 294 294 296 296 297 299 296 309 308 300 312 315 316 315 318 320 321 322 323 323 320 317 317 321 323 325 325 326 327 327 325 325 325 325 325
280 281 283 284 287 287 293 294 293 294 295 296 296 296 296 297 312 307 304 307 313 315 316 319 320 319 321 322 321 315 316 319 318 319 321 322 325 326 326 325 326 326 326
279 280 280 281 283 286 288 294 295 294 294 294 297 298 296 297 309 308 307 307 309 312 315 317 319 318 318 319 315 309 314 317 318 317 318 320 321 324 326 327 327 327 327
276 275 277 279 280 283 285 287 295 293 293 293 295 297 299 297 301 311 309 307 307 295 303 311 317 317 317 317 314 308 309 315 317 317 317 318 320 321 324 326 327 328 328
274 275 277 277 278 280 285 286 293 294 294 293 293 296 296 297 296 311 310 307 304 292 298 300 302 316 315 316 312 304 312 312 315 317 317 317 319 320 321 324 326 325 325
274 276 274 275 277 280 280 285 285 293 293 293 293 296 296 297 296 312 311 311 305 297 303 296 300 309 314 314 309 313 314 306 313 315 315 316 317 319 320 322 324 324 324
273 273 273 273 273 275 276 280 283 292 291 291 293 295 295 295 296 309 311 312 309 307 302 297 297 302 312 311 305 314 313 303 308 311 312 313 315 316 318 319 321 321 322
272 272 272 272 273 274 276 278 281 284 290 290 293 294 294 296 296 306 311 310 309 309 305 291 295 305 307 309 306 313 309 313 311 307 310 311 312 313 315 316 317 318 319
272 271 271 272 271 272 273 276 279 280 290 289 290 291 293 297 294 307 309 309 308 309 305 295 296 299 305 306 309 310 307 311 311 305 309 310 310 310 311 312 313 313 313
270 270 270 270 270 272 272 275 278 280 281 290 290 289 289 294 293 305 307 308 309 308 305 300 298 300 294 303 303 297 300 301 303 302 308 307 308 309 310 310 310 309 307
269 269 269 270 270 271 272 274 277 278 281 286 290 290 289 291 294 294 306 305 305 304 301 301 300 299 298 296 303 299 295 296 296 295 302 305 306 304 308 309 307 303 304
268 269 269 269 270 270 272 273 276 277 279 282 289 290 290 289 292 292 305 304 303 299 300 299 298 299 298 293 299 301 301 295 290 293 301 297 304 305 307 305 301 300 304
267 267 267 268 268 270 273 275 278 278 279 281 284 288 290 288 291 294 302 303 304 296 296 297 297 296 295 296 299 298 296 294 292 289 296 291 302 304 305 308 304 304 304
265 266 266 267 267 269 273 275 277 278 279 281 283 287 287 289 288 291 301 301 302 300 301 301 295 299 295 298 299 295 295 296 296 292 297 295 289 301 301 300 302 302 303
265 266 266 267 267 269 273 275 276 278 279 280 282 284 287 287 288 289 300 302 302 300 301 303 300 301 301 299 298 298 293 289 289 293 291 292 286 290 287 288 300 302 302
265 265 268 268 267 267 272 274 276 276 279 280 282 284 286 287 289 291 295 299 299 299 301 301 301 301 300 299 299 294 290 291 286 291 289 290 288 284 285 287 290 301 301
265 267 267 269 271 269 272 275 276 275 277 279 280 286 287 288 290 291 294 299 295 297 296 292 296 298 298 297 296 297 294 293 291 286 293 286 289 286 285 284 288 292 297
Wind_Speed
9 8 10 11 11 13 10 10 11 10 10 11 11 12 13 13 12 8 7 14 19 23 26 29 30 31 31 30 30 29 29 27 25 25 25 24 23 22 21 21 22 21 20
10 9 8 11 10 10 12 15 11 12 11 11 14 13 12 12 12 12 8 8 16 18 26 28 31 33 34 33 31 31 30 28 27 27 24 24 22 21 22 21 22 21 21
12 12 7 9 9 9 14 13 17 11 11 11 15 13 12 12 12 13 11 8 8 14 20 29 31 33 34 35 33 32 31 30 28 27 26 26 23 23 24 22 22 22 20
15 12 8 10 6 9 9 10 11 16 11 12 12 12 12 12 14 14 11 9 9 7 10 22 30 33 35 35 35 34 33 31 29 27 27 26 24 24 23 23 23 23 22
18 13 11 10 8 7 8 9 12 11 14 11 12 13 12 11 12 10 13 13 12 10 8 13 19 29 34 36 35 35 35 31 30 28 28 26 25 25 25 25 24 24 23
19 16 12 11 10 9 7 8 10 12 10 14 11 13 11 11 11 12 14 13 13 15 11 12 13 11 35 38 37 36 35 32 28 29 28 27 26 26 25 25 26 25 23
17 16 14 14 11 10 9 8 9 12 11 10 14 13 12 13 12 9 8 14 14 15 11 12 10 3 14 35 36 37 35 32 31 29 29 28 27 27 28 27 27 26 25
16 18 18 17 15 11 13 8 7 9 11 9 6 14 10 8 11 12 8 10 12 9 8 11 12 8 10 14 19 31 33 33 32 31 29 28 28 29 29 28 27 26 24
18 18 21 19 19 14 12 10 5 8 10 13 12 7 7 8 10 9 12 9 12 10 9 10 14 15 7 9 13 21 28 30 31 30 30 29 29 29 29 28 27 26 25
18 18 19 20 16 14 14 8 7 6 10 13 12 12 18 9 12 6 9 12 9 11 13 9 10 16 18 12 12 16 22 26 27 29 29 28 29 29 31 28 27 26 24
15 18 17 19 16 13 17 13 8 8 8 13 11 12 17 19 20 11 11 10 9 8 8 12 10 12 17 16 11 13 23 24 22 23 26 28 27 27 28 29 27 25 24
12 14 18 18 17 16 16 14 13 9 8 11 12 11 13 17 17 16 15 17 17 12 8 9 15 12 12 13 15 18 24 24 24 20 22 25 26 26 26 26 26 26 23
12 15 18 16 14 17 18 17 16 9 8 10 16 11 7 16 20 15 13 14 13 2 4 3 11 14 14 12 13 20 23 24 23 21 20 20 21 22 23 24 23 20 22
15 18 16 17 18 21 16 16 16 8 7 8 18 12 10 12 21 14 14 18 12 3 2 6 2 14 14 14 18 21 17 24 23 23 21 19 19 18 16 20 19 21 21
15 16 19 19 18 17 18 17 13 13 8 7 13 10 7 11 18 15 14 18 18 11 14 4 4 9 14 14 18 18 18 22 24 23 21 18 18 17 16 17 21 20 20
18 18 18 18 19 18 19 18 12 15 8 6 6 11 9 12 16 18 16 18 18 18 14 4 3 7 13 12 17 18 18 20 23 21 20 19 18 16 18 16 18 19 21
18 19 18 18 17 16 17 17 18 19 13 8 10 13 11 15 13 18 16 17 16 14 17 2 3 10 13 17 14 14 13 16 13 20 20 19 17 18 19 18 17 18 22
18 18 18 18 17 17 17 17 18 15 14 12 10 12 13 9 20 16 14 21 18 18 16 15 6 8 13 18 19 17 12 12 13 17 22 21 20 18 17 17 17 17 19
19 19 19 18 18 16 17 18 17 17 17 10 10 10 12 12 17 10 14 17 16 14 14 14 11 10 4 10 14 7 10 7 7 16 21 20 20 20 18 18 20 19 19
19 19 18 18 18 16 18 19 16 17 17 17 12 10 10 14 13 17 18 18 16 14 15 15 14 15 13 9 15 15 9 5 7 4 9 13 17 17 19 21 22 20 20
17 19 19 18 18 16 13 16 15 15 16 17 15 11 10 13 21 29 15 17 18 16 16 15 13 13 13 10 17 12 13 8 2 3 8 5 8 8 9 17 17 23 23
17 18 18 18 18 14 24 27 25 15 15 15 17 12 10 15 18 28 24 23 23 20 19 15 13 17 17 18 13 15 13 12 7 2 6 3 7 10 9 11 19 23 24
16 18 18 17 18 17 27 28 29 17 15 16 16 14 10 8 12 16 21 27 25 31 31 21 19 21 19 22 20 18 17 15 10 7 9 9 1 9 6 7 20 23 23
17 17 18 18 18 16 27 27 29 19 16 17 17 16 13 13 13 13 15 24 22 23 25 21 25 23 21 21 21 19 16 8 7 7 4 7 3 3 2 2 16 21 23
18 17 17 17 17 18 28 28 24 16 15 16 15 18 17 15 19 24 14 20 20 20 24 26 28 31 31 32 25 16 14 15 5 8 4 5 4 4 2 2 2 16 21
19 16 18 18 20 18 28 29 24 13 16 13 15 18 19 16 21 23 15 20 20 18 17 10 12 19 27 26 31 22 19 18 10 4 8 5 7 6 3 1 4 5 8
Wind_Direction
331 325 326 325 314 325 281 257 248 239 228 221 222 216 210 206 206 209 209 208 208 208 201 197 191 187 181 176 170 165 163 161 159 156 154 151 138 146 142 144 143 137 141
318 311 321 321 314 329 331 310 247 240 234 218 223 211 212 207 205 208 209 211 214 210 202 200 194 188 183 177 170 167 164 161 157 155 156 137 148 148 148 146 142 146 148
315 302 310 308 311 317 318 314 309 236 237 228 226 217 213 210 208 207 205 207 211 221 211 199 195 188 184 177 172 169 165 160 157 156 145 145 153 156 149 147 145 149 147
311 294 297 296 286 305 309 314 300 294 232 230 224 219 215 208 213 208 210 204 206 204 215 206 199 190 185 178 172 169 165 159 158 153 149 154 159 153 144 147 152 152 150
312 291 290 283 283 282 295 306 313 286 281 231 224 221 215 210 211 204 211 209 198 202 197 205 209 195 186 176 172 167 160 159 158 153 152 157 160 154 152 155 154 151 151
313 303 293 280 284 269 280 291 299 305 281 293 233 214 203 206 203 203 208 208 205 204 192 201 205 228 190 174 168 165 160 161 157 156 155 163 159 157 157 158 156 155 148
319 320 312 298 285 264 259 270 291 292 282 269 303 218 200 195 197 194 181 206 193 196 186 196 203 185 212 172 166 158 159 162 162 157 163 159 162 162 162 158 157 154 153
315 311 309 303 287 275 266 253 277 290 287 271 294 261 191 184 201 198 176 194 178 164 159 178 175 133 206 139 158 153 158 165 165 162 159 162 166 167 163 161 160 156 156
309 311 300 291 290 282 261 252 250 272 286 290 261 271 229 212 171 188 195 190 173 171 157 175 163 151 119 111 148 156 165 162 164 160 165 168 169 167 166 164 160 161 162
304 296 297 288 301 297 259 246 236 240 275 280 271 271 292 281 182 160 196 185 175 166 175 179 181 157 145 153 167 163 153 156 161 164 168 171 171 168 168 163 165 165 166
296 299 294 311 304 303 287 249 229 232 210 262 244 266 277 296 192 174 175 178 176 170 182 169 176 157 155 152 163 156 148 151 159 165 171 171 171 173 168 167 167 169 166
297 302 298 298 301 299 302 268 237 217 251 266 265 229 238 286 196 180 178 179 183 180 171 174 177 155 149 153 155 156 150 155 158 170 176 172 173 173 171 169 171 175 176
300 300 295 288 298 295 293 298 256 216 221 260 281 262 264 257 290 184 173 174 175 123 161 185 184 158 143 154 160 156 150 157 162 167 172 170 171 176 174 174 183 178 179
297 292 285 295 299 288 298 294 275 226 211 232 270 234 238 267 269 211 173 169 163 114 168 140 274 154 154 163 163 161 160 159 163 169 171 170 173 175 175 180 186 170 159
289 292 295 284 284 288 302 288 298 254 222 214 252 249 243 254 293 199 181 175 169 159 181 178 159 175 162 160 161 162 166 166 164 166 171 170 173 174 170 165 164 161 154
288 291 294 296 293 290 292 295 288 271 232 247 263 252 237 255 268 254 176 182 176 169 172 155 163 155 163 159 162 162 168 171 159 167 167 169 175 167 169 161 161 156 158
287 287 289 287 288 291 294 292 287 293 247 245 251 272 243 250 263 252 173 177 171 166 166 86 108 157 159 159 166 163 163 171 167 163 166 169 166 168 161 160 160 158 160
288 288 289 286 288 282 281 278 285 288 257 234 236 256 275 254 292 203 173 178 174 166 159 152 140 157 163 166 166 160 166 169 172 169 168 165 168 163 160 158 156 158 155
292 289 289 285 285 283 282 278 274 276 290 260 245 258 283 267 262 233 185 177 171 162 158 153 148 163 127 163 150 125 152 146 162 158 162 165 168 164 163 161 157 156 155
294 291 287 284 283 280 281 274 274 280 276 281 257 246 262 283 266 291 185 179 166 151 154 161 160 161 156 163 166 157 156 165 157 132 170 168 172 163 164 167 163 158 159
294 293 290 285 282 278 271 282 268 269 271 275 274 261 268 289 265 288 177 173 161 152 159 159 160 159 159 158 167 167 172 148 60 151 168 158 165 164 177 168 171 162 166
299 295 289 285 282 276 276 271 272 264 266 269 272 260 261 271 292 294 171 168 168 159 159 154 166 167 163 168 157 161 155 160 174 259 139 168 174 176 176 181 183 170 168
301 294 289 284 280 275 275 274 270 265 264 261 261 271 252 267 294 299 179 173 176 170 165 163 168 176 163 173 159 160 169 171 166 151 151 167 215 175 169 175 175 172 170
303 295 290 283 277 274 273 271 265 262 257 255 258 261 264 267 274 277 218 177 177 176 172 171 170 172 167 164 164 163 159 122 80 153 126 153 160 129 105 68 179 175 170
306 300 290 284 269 268 270 269 262 259 253 250 253 245 246 248 252 267 252 174 173 180 187 174 174 164 162 165 158 141 150 155 132 173 182 115 168 101 86 127 140 182 174
306 306 302 292 275 261 265 267 259 250 251 248 239 242 225 232 245 256 252 171 172 175 170 145 163 159 157 161 160 170 160 169 162 115 184 118 153 141 141 172 161 180 177